Torna al catalogo

FENGYUN 1C DEB

AttivoPO
NORAD 38173·DEBRIS·🇨🇳 China

Lanciato May 10, 1999 da Taiyuan Satellite Launch Center

Loading…

Prossimi Passaggi (prossime 24 ore)

TLE

In scadenzaSource: Space-Track

Epoca: Sep 10, 2026, 00:27 UTC

1 38173U 99025ERW 26253.01909054  .00003564  00000-0  10057-2 0  9996
2 38173  98.9860 171.1300 0160149  34.4503 326.6941 14.39126162645435

Traccia FENGYUN 1C DEB in tempo reale con AllMySat

Download on the App Store